Satellite-Ground Cal/Val Region Overpasses Predictions

Prediction of Satellite NPP Overpassing Cal/Val Region: PacNW

Region Location: (Latitude: 10.00, Longitude: 139.50) to (Latitude: 22.70, Longitude: 165.60).

Table of predicted overpasses for the next 14.0 days since TLE Epoch: 2/1/2015
Interval Starting Time Starting Location Ending Time Ending Location
1 02/01/2015 15:24:03 ( 22.70, 155.56) 02/01/2015 15:27:39 ( 10.02, 152.56)
2 02/02/2015 02:33:08 ( 10.04, 163.10) 02/02/2015 02:36:43 ( 22.66, 160.11)
3 02/02/2015 15:05:00 ( 22.66, 160.32) 02/02/2015 15:08:35 ( 10.03, 157.32)
4 02/03/2015 02:16:50 ( 19.77, 165.59) 02/03/2015 02:17:39 ( 22.64, 164.88)
5 02/03/2015 03:55:34 ( 10.04, 142.49) 02/03/2015 03:59:09 ( 22.66, 139.50)
6 02/03/2015 14:45:55 ( 22.68, 165.08) 02/03/2015 14:49:30 ( 10.05, 162.09)
7 02/03/2015 16:27:25 ( 22.66, 139.70) 02/03/2015 16:27:39 ( 21.84, 139.50)
8 02/04/2015 03:36:29 ( 10.02, 147.26) 02/04/2015 03:40:04 ( 22.64, 144.27)
9 02/04/2015 16:08:21 ( 22.68, 144.47) 02/04/2015 16:11:56 ( 10.05, 141.48)
10 02/05/2015 03:17:25 ( 10.00, 152.03) 02/05/2015 03:21:01 ( 22.69, 149.02)
11 02/05/2015 15:49:16 ( 22.69, 149.24) 02/05/2015 15:52:52 ( 10.01, 146.23)
12 02/06/2015 02:58:21 ( 10.05, 156.78) 02/06/2015 03:01:56 ( 22.67, 153.79)
13 02/06/2015 15:30:13 ( 22.65, 153.99) 02/06/2015 15:33:48 ( 10.02, 151.00)
14 02/07/2015 02:39:17 ( 10.03, 161.55) 02/07/2015 02:42:52 ( 22.66, 158.55)
15 02/07/2015 15:11:08 ( 22.66, 158.76) 02/07/2015 15:14:43 ( 10.04, 155.76)
16 02/08/2015 02:21:05 ( 13.13, 165.60) 02/08/2015 02:23:47 ( 22.64, 163.32)
17 02/08/2015 04:01:42 ( 10.03, 140.93) 02/08/2015 04:03:27 ( 16.20, 139.51)
18 02/08/2015 14:52:04 ( 22.68, 163.52) 02/08/2015 14:55:39 ( 10.05, 160.53)
19 02/09/2015 03:42:38 ( 10.02, 145.70) 02/09/2015 03:46:13 ( 22.64, 142.71)
20 02/09/2015 14:36:13 ( 11.36, 165.59) 02/09/2015 14:36:36 ( 10.01, 165.28)
21 02/09/2015 16:14:30 ( 22.67, 142.91) 02/09/2015 16:18:05 ( 10.05, 139.92)
22 02/10/2015 03:23:33 ( 10.01, 150.47) 02/10/2015 03:27:09 ( 22.69, 147.46)
23 02/10/2015 15:55:25 ( 22.69, 147.68) 02/10/2015 15:59:01 ( 10.00, 144.67)
24 02/11/2015 03:04:30 ( 10.06, 155.22) 02/11/2015 03:08:05 ( 22.68, 152.23)
25 02/11/2015 15:36:21 ( 22.70, 152.44) 02/11/2015 15:39:57 ( 10.02, 149.44)
26 02/12/2015 02:45:25 ( 10.04, 159.98) 02/12/2015 02:49:00 ( 22.67, 156.99)
27 02/12/2015 15:17:17 ( 22.65, 157.19) 02/12/2015 15:20:52 ( 10.03, 154.20)
28 02/13/2015 02:26:21 ( 10.03, 164.75) 02/13/2015 02:29:56 ( 22.66, 161.76)
29 02/13/2015 14:58:13 ( 22.66, 161.96) 02/13/2015 15:01:48 ( 10.04, 158.97)
30 02/14/2015 03:48:46 ( 10.04, 144.14) 02/14/2015 03:52:21 ( 22.67, 141.14)
31 02/14/2015 14:40:27 ( 18.03, 165.59) 02/14/2015 14:42:43 ( 10.05, 163.73)
32 02/14/2015 16:20:38 ( 22.65, 141.35) 02/14/2015 16:22:48 ( 15.02, 139.51)


NCC Satellite Cal/Val Overpasses Prediction Service
